Weather History for KCDW - February, 2013

Change the Weather History Date:

Monday, February 11, 2013

  Actual Average Record
Temperature  
Mean Temperature 33 °F -  
Max Temperature 39 °F 37 °F 64 °F (2009)
Min Temperature 27 °F 17 °F 2 °F (1962)
Degree Days  
Heating Degree Days 32    
Moisture  
Dew Point 32 °F    
Average Humidity 94    
Maximum Humidity 100    
Minimum Humidity 72    
Precipitation  
Precipitation 0.32 in - - ()
Sea Level Pressure  
Sea Level Pressure 29.93 in    
Wind  
Wind Speed 0 mph (SE)    
Max Wind Speed 6 mph    
Max Gust Speed -    
Visibility 2 miles    
Events Fog , Rain    
Averages and records for this station are not official NWS values.
T = Trace of Precipitation, MM = Missing Value Source: NWS Daily Summary

Daily Weather History Graph

Daily Weather History Graph

Search for Another Location

Airport or City:

Trip Planner

Search our weather history database for the weather conditions in past years. The results will help you decide how hot, cold, wet, or windy it might be!

Date:

Astronomy

Feb. 11, 2013 Rise Set
Actual Time 6:56 AM EST 5:27 PM EST
Civil Twilight 6:27 AM EST 5:55 PM EST
Nautical Twilight 5:55 AM EST 6:27 PM EST
Astronomical Twilight 5:23 AM EST 6:59 PM EST
Moon 7:18 AM EST (2/11) 7:22 PM EST (2/11)
Length of Visible Light 11h 27m
Length of Day
10h 31m
Waxing Crescent, 3% of the Moon is Illuminated
Feb 11
Waxing Crescent
Feb 17
First Quarter
Feb 25
Full
Mar 4
Last Quarter
Mar 11
New

Hourly Weather History & Observations

Time (EST) Temp. Windchill Dew Point Humidity Pressure Visibility Wind Dir Wind Speed Gust Speed Precip Events Conditions
12:53 AM 27.0 °F - 19.0 °F 72% 30.33 in 10.0 mi Calm Calm - N/A   Clear
1:53 AM 27.0 °F - 21.9 °F 81% 30.32 in 10.0 mi Calm Calm - N/A   Partly Cloudy
2:53 AM 28.0 °F - 21.0 °F 75% 30.29 in 10.0 mi Calm Calm - N/A   Overcast
3:53 AM 28.0 °F - 21.9 °F 78% 30.25 in 10.0 mi Calm Calm - N/A   Overcast
4:53 AM 28.9 °F 25.2 °F 21.9 °F 75% 30.20 in 10.0 mi ENE 3.5 mph - 0.00 in   Overcast
5:41 AM 30.2 °F - 23.0 °F 75% 30.16 in 7.0 mi Calm Calm - 0.00 in Rain Light Freezing Rain
5:53 AM 30.0 °F - 24.1 °F 79% 30.18 in 6.0 mi Calm Calm - 0.01 in Rain Light Freezing Rain
6:38 AM 30.2 °F - 26.6 °F 86% 30.13 in 3.0 mi Calm Calm - 0.03 in Rain Light Freezing Rain
6:45 AM 30.2 °F - 26.6 °F 86% 30.13 in 2.5 mi Calm Calm - 0.04 in Rain Light Freezing Rain
6:53 AM 30.0 °F 24.1 °F 28.0 °F 92% 30.13 in 3.0 mi ENE 5.8 mph - 0.05 in Rain Light Freezing Rain
7:18 AM 30.2 °F - 28.4 °F 93% 30.09 in 3.0 mi Calm Calm - 0.01 in Rain Light Freezing Rain
7:27 AM 30.2 °F - 30.2 °F 100% 30.09 in 2.0 mi Calm Calm - 0.02 in Rain Light Freezing Rain
7:34 AM 30.2 °F - 30.2 °F 100% 30.09 in 1.8 mi Calm Calm - 0.03 in Rain Light Freezing Rain
7:53 AM 32.0 °F - 30.0 °F 92% 30.09 in 1.0 mi Calm Calm - 0.07 in   Overcast
7:57 AM 32.0 °F 28.7 °F 30.2 °F 93% 30.06 in 1.0 mi NE 3.5 mph - 0.01 in Rain Light Freezing Rain
8:12 AM 32.0 °F - 30.2 °F 93% 30.05 in 1.0 mi Calm Calm - 0.04 in Rain Light Freezing Rain
8:15 AM 32.0 °F - 30.2 °F 93% 30.05 in 1.0 mi Calm Calm - 0.05 in Rain Light Freezing Rain
8:17 AM 32.0 °F - 30.2 °F 93% 30.05 in 0.8 mi Calm Calm - 0.06 in Rain Light Freezing Rain
8:24 AM 32.0 °F - 30.2 °F 93% 30.05 in 0.8 mi Calm Calm - 0.07 in   Overcast
8:30 AM 32.0 °F - 30.2 °F 93% 30.05 in 1.0 mi Calm Calm - 0.08 in Rain Light Freezing Rain
8:37 AM 32.0 °F - 30.2 °F 93% 30.05 in 0.8 mi Calm Calm - 0.10 in Rain Light Freezing Rain
8:53 AM 32.0 °F - 30.9 °F 96% 30.06 in 0.8 mi Calm Calm - 0.12 in Rain Light Freezing Rain
8:57 AM 32.0 °F - 30.2 °F 93% 30.03 in 1.0 mi Calm Calm - 0.01 in   Mist
9:13 AM 33.8 °F - 32.0 °F 93% 30.03 in 1.0 mi Calm Calm - 0.02 in Rain Light Freezing Rain
9:35 AM 33.8 °F - 32.0 °F 93% 30.01 in 1.2 mi Calm Calm - 0.04 in Rain Light Rain
9:41 AM 33.8 °F - 32.0 °F 93% 30.01 in 0.8 mi Calm Calm - 0.04 in Rain Light Freezing Rain
9:53 AM 33.1 °F - 32.0 °F 96% 30.02 in 0.8 mi Calm Calm - 0.05 in Rain Light Freezing Rain
10:11 AM 33.8 °F - 32.0 °F 93% 29.99 in 0.8 mi Calm Calm - 0.01 in Rain Light Rain
10:20 AM 33.8 °F - 32.0 °F 93% 29.98 in 1.0 mi Calm Calm - 0.01 in Rain Light Freezing Rain
10:24 AM 33.8 °F - 32.0 °F 93% 29.97 in 0.8 mi Calm Calm - 0.01 in Rain Light Freezing Rain
10:44 AM 33.8 °F - 32.0 °F 93% 29.97 in 0.8 mi Calm Calm - 0.01 in   Overcast
10:53 AM 34.0 °F - 33.1 °F 96% 29.99 in 0.5 mi Calm Calm - 0.01 in Fog Fog
11:02 AM 33.8 °F - 33.8 °F 100% 29.97 in 0.5 mi Calm Calm - N/A Fog Fog
11:38 AM 33.8 °F - 33.8 °F 100% 29.93 in 0.8 mi Calm Calm - 0.01 in Rain Light Rain
11:50 AM 33.8 °F - 33.8 °F 100% 29.92 in 0.8 mi Calm Calm - 0.01 in   Overcast
11:53 AM 34.0 °F - 33.1 °F 96% 29.94 in 0.8 mi Calm Calm - 0.01 in   Overcast
12:02 PM 33.8 °F - 33.8 °F 100% 29.92 in 0.8 mi Calm Calm - N/A   Overcast
12:13 PM 33.8 °F - 33.8 °F 100% 29.91 in 1.0 mi Calm Calm - N/A   Overcast
12:21 PM 35.6 °F - 33.8 °F 93% 29.90 in 1.0 mi Calm Calm - N/A   Overcast
12:28 PM 33.8 °F - 33.8 °F 100% 29.88 in 0.8 mi Calm Calm - N/A   Overcast
12:53 PM 35.1 °F - 34.0 °F 96% 29.88 in 0.8 mi Calm Calm - N/A   Overcast
1:12 PM 35.6 °F - 35.6 °F 100% 29.84 in 0.8 mi Calm Calm - N/A   Overcast
1:53 PM 37.0 °F - 36.0 °F 96% 29.84 in 0.5 mi Calm Calm - N/A Fog Fog
2:09 PM 37.4 °F - 35.6 °F 93% 29.81 in 0.2 mi Calm Calm - N/A Fog Fog
2:21 PM 37.4 °F - 37.4 °F 100% 29.80 in 0.5 mi Calm Calm - N/A Fog Fog
2:53 PM 39.0 °F - 37.9 °F 96% 29.80 in 0.5 mi Calm Calm - N/A Fog Fog
3:22 PM 39.2 °F 37.0 °F 39.2 °F 100% 29.76 in 1.0 mi SSW 3.5 mph - N/A   Overcast
3:51 PM 39.2 °F - 39.2 °F 100% 29.74 in 0.8 mi Calm Calm - N/A   Overcast
3:53 PM 39.9 °F - 39.0 °F 97% 29.77 in 0.8 mi Calm Calm - N/A   Overcast
4:53 PM 39.9 °F - 39.0 °F 97% 29.75 in 0.5 mi Calm Calm - N/A Fog Fog
5:53 PM 37.9 °F - 37.0 °F 97% 29.72 in 0.2 mi Calm Calm - N/A Fog Fog
6:13 PM 37.4 °F - 35.6 °F 93% 29.70 in 0.2 mi Calm Calm - N/A Fog Fog
6:53 PM 37.0 °F - 37.0 °F 100% 29.70 in 0.2 mi Calm Calm - N/A Fog Fog
7:22 PM 37.4 °F - 35.6 °F 93% 29.68 in 0.2 mi Calm Calm - N/A Fog Fog
7:53 PM 36.0 °F - 36.0 °F 100% 29.69 in 0.2 mi Calm Calm - N/A Fog Fog
8:01 PM 35.6 °F - 35.6 °F 100% 29.67 in 0.2 mi Calm Calm - N/A Fog Fog
8:10 PM 35.6 °F - 35.6 °F 100% 29.67 in 0.2 mi Calm Calm - N/A Fog Fog
8:53 PM 36.0 °F - 35.1 °F 97% 29.69 in 0.2 mi Calm Calm - N/A Fog Fog
9:08 PM 35.6 °F - 35.6 °F 100% 29.67 in 0.5 mi Calm Calm - N/A Fog Fog
9:38 PM 35.6 °F - 35.6 °F 100% 29.70 in 0.5 mi Calm Calm - 0.00 in Fog , Rain Light Rain
9:53 PM 37.0 °F - 37.0 °F 100% 29.73 in 1.0 mi Calm Calm - 0.00 in   Overcast
10:01 PM 35.6 °F - 35.6 °F 100% 29.71 in 0.8 mi Calm Calm - N/A   Overcast
10:32 PM 37.4 °F 34.9 °F 35.6 °F 93% 29.71 in 1.2 mi SW 3.5 mph - N/A   Overcast
10:51 PM 37.4 °F - 37.4 °F 100% 29.72 in 3.0 mi Calm Calm - N/A   Overcast
10:53 PM 37.9 °F - 37.0 °F 97% 29.74 in 3.0 mi Calm Calm - N/A   Overcast
11:17 PM 39.2 °F - 39.2 °F 100% 29.72 in 10.0 mi Calm Calm - N/A   Mostly Cloudy
11:53 PM 37.0 °F 34.5 °F 36.0 °F 96% 29.75 in 5.0 mi South 3.5 mph - N/A   Scattered Clouds